Regional Weather Roundup
Issued by NWS

Home | Current Version | Previous Version | Graphics & Text | Print | Product List | Glossary On
Versions: 1 2 3 4 5 6 7 8 9 10 11 12 13 14 15 16 17 18 19 20 21 22 23 24 25 26 27 28 29 30 31 32 33 34 35 36 37 38 39 40 41 42 43 44 45 46 47 48 49 50
000
ASUS43 KLSX 240407
RWRMO

WEATHER SUMMARY FOR MISSOURI
NATIONAL WEATHER SERVICE SPRINGFIELD MO
1000 PM CST SUN NOV 23 2014

NOTE: "FAIR" INDICATES FEW OR NO CLOUDS BELOW 12,000 FEET WITH NO
       SIGNIFICANT WEATHER AND/OR OBSTRUCTIONS TO VISIBILITY.
       CURRENT SKY AND/OR WEATHER CONDITIONS ARE NOT AVAILABLE FOR
       CHILLICOTHE AND FARMINGTON.

MOZ001>031-035>038-043-044-053-054-240500-
...NORTHERN AND WESTERN MISSOURI...

CITY           SKY/WX    TMP DP  RH WIND       PRES   REMARKS
KANSAS CTY INT CLOUDY    40  36  86 NW15G21   29.47S
KANSAS C DTWN  CLOUDY    42  37  82 NW8       29.47S
ST JOSEPH      CLOUDY    42  34  73 NW22G29   29.48S
CHILLICOTHE      N/A     40  37  89 NW12G24   29.42R
KIRKSVILLE     LGT RAIN  44  42  93 NW15G23   29.32R FOG

$$
MOZ066>068-077>081-088>096-101>105-240500-
...SOUTHWEST MISSOURI...

CITY           SKY/WX    TMP DP  RH WIND       PRES   REMARKS
SPRINGFIELD    RAIN      46  42  86 NW29G38   29.36R
JOPLIN         RAIN      43  40  89 NW17      29.50R

$$
MOZ032>034-039>042-045>050-055>058-069>072-240500-
...CENTRAL MISSOURI...

CITY           SKY/WX    TMP DP  RH WIND       PRES   REMARKS
COLUMBIA       LGT RAIN  49  48  97 NW23G31   29.27R FOG
JEFFERSON CITY LGT RAIN  54  54 100 NW5       29.25F FOG
ROLLA          LGT RAIN  53  52  96 S12       29.24F FOG
SEDALIA        HVY RAIN  44  41  89 NW26G41   29.37R FOG
WHITEMAN AFB   LGT RAIN  42  39  90 NW24G36   29.39R
WARRENSBURG    DRIZZLE   39  37  93 NW18G25   29.42R WCI  30
OSAGE BEACH    CLOUDY    48  45  87 NW13G24   29.30R

$$
MOZ051-052-059>065-240500-
...EAST CENTRAL MISSOURI...

CITY           SKY/WX    TMP DP  RH WIND       PRES   REMARKS
ST LOUIS INTL  CLOUDY    56  54  93 SW10      29.25S
SPIRIT OF STL  CLOUDY    55  54  94 SW7       29.24F
ST CHARLES     FOG       50  50 100 S3        29.24S VSB 1/2

$$
MOZ072>076-082>087-097>100-106>115-240500-
...SOUTH CENTRAL AND SOUTHEAST MISSOURI...

CITY           SKY/WX    TMP DP  RH WIND       PRES   REMARKS
CAPE GIRARDEAU CLOUDY    58  57  97 S13       29.33F
FARMINGTON     CLOUDY    55  54  94 SE12      29.29F
POPLAR BLUFF   CLOUDY    58  56  93 S9        29.32F
WEST PLAINS    LGT RAIN  56  51  84 SW10      29.30F

$$


USA.gov is the U.S. government's official web portal to all federal, state and local government web resources and services.